Location: Cortos
(40.7190°N, 4.5893°W)
Time: 19:35:33
(UTC+00:00)

BREEZE-M DEB (TANK) - Pass Details

Date: 05 July 2020
Orbit: 558 x 17160 km, 49.5° (Epoch: 06 August)

Event Time Altitude Azimuth Distance (km) Brightness Sun altitude
Rises 22:12:37 0° 297° (WNW) 2,811 7.4 -19.7°
Reaches altitude 10° 22:14:38 10° 288° (WNW) 1,843 6.2 -19.9°
Maximum altitude 22:17:52 40° 216° (SW) 954 3.8 -20.2°
Enters shadow 22:18:31 37° 191° (SSW) 1,057 3.8 -20.3°
